CZ-6A DEB, 55524

Orbit data source: Space-Track

CZ-6A DEB, 55524 is space debris in SSO originally from a launch on Fri, 11 Nov 2022 UTC launched from the Taiyaun Space Center, China (TSC). Debris objects in space refer to the collection of defunct objects orbiting the Earth. Examples of debris include non-operational satellites, rocket bodies, and fragments generated from explosions, collisions, or faulty payload assembly.

Loading next visibility...
Identifier
55524, 2022-151XW
Orbit
SSO
Country
Flag of CNCN / PRC
Related business
Manufacturer
SAST
Mission
Spacecraft
Bus & Motor
Unknown
Mass
Unknown
Launch date (UTC)
2022-11-11 (4 years ago)
Launch vehicle
Unknown
Launch site
Taiyaun Space Center, China (TSC)
Object type
Payload
Rocket body
Debris
Shape & HBR
Unknown shape, 0.1 m
Radar Cross Section
Small (<0.1 m²)

Expand to show TLE details & history
Last TLE update: 3 days ago

TLE from 3 days ago
0 CZ-6A DEB
1 55524U 22151XW  26170.95375202  .00001780  00000-0  90396-3 0  9997
2 55524  98.8474 176.2399 0052048 325.5600  34.2205 14.16517739180245
Epoch: 2026-06-19T22:53Z
TLE epoch observation values (Epoch: 2026-06-19T22:53:24.174Z)
Latitude
-0.00001°
Longitude
-75.28615°
Altitude
809.062 km
Speed
7.465 km/s
True Right ascension
11h 44m 57s
True Declination
0° 00' 00"
Sunlit
Object was in daylight at epoch
Visualization orbit readout
Latitude
Unknown
Longitude
Unknown
Altitude
Unknown
Speed
Unknown
Apparent Right ascension
Unknown
Apparent Declination
Unknown
Sunlit
N/A
Visualization observer readout
Local Sidereal Time
00:36:19
Azimuth
Unknown
Elevation
Unknown
Doppler factor
Unknown
Orbital elements
Apogee altitude
871.863 km
Perigee altitude
796.784 km
Semi-major axis
7,212.46 km
Eccentricity
0.0052
Inclination
98.8474°
RAAN
176.2399°
Arg. of periapsis
325.56°
True anomaly
34.55773°
Mean anomaly
34.2205°
Eccentric anomaly
34.38893°
Mean motion
3.54338 °/min
Orbital period
101.6 mins
BSTAR
0.00090396
Loading maneuver chart data...
Computing Atmospheric mass density...
Loading historical data...
Loading historical data...
Loading historical data...
Loading historical data...
Loading historical data...
Loading historical data...
Loading historical data...

Documentation

Showing up to 5 results
|